| time (UTC) | temp C | wind direction | speed KPH | gust KPH | rain 1hr cm | rain 24hr cm | rain mn cm | humidity % | barometer mb |
| 20260906175056 | 28 | 99 | 6.4 | 19.3 | 0.00 | 0.00 | 0.00 | 76 | 1017.6 |
| 20260906174559 | 29 | 103 | 8.0 | 19.3 | 0.00 | 0.00 | 0.00 | 76 | 1017.6 |
| 20260906174055 | 29 | 99 | 6.4 | 19.3 | 0.00 | 0.00 | 0.00 | 77 | 1017.4 |
| 20260906173558 | 29 | 105 | 9.7 | 17.7 | 0.00 | 0.00 | 0.00 | 74 | 1017.4 |
| 20260906173105 | 30 | 137 | 4.8 | 16.1 | 0.00 | 0.00 | 0.00 | 74 | 1017.4 |
| 20260906172556 | 30 | 123 | 3.2 | 12.9 | 0.00 | 0.00 | 0.00 | 75 | 1017.4 |
| 20260906172054 | 29 | 172 | 4.8 | 14.5 | 0.00 | 0.00 | 0.00 | 76 | 1017.4 |
| 20260906171609 | 29 | 160 | 6.4 | 14.5 | 0.00 | 0.00 | 0.00 | 76 | 1017.5 |
| 20260906171055 | 29 | 171 | 4.8 | 17.7 | 0.00 | 0.00 | 0.00 | 76 | 1017.4 |
| 20260906170556 | 28 | 173 | 6.4 | 17.7 | 0.00 | 0.00 | 0.00 | 76 | 1017.5 |
| 20260906165557 | 28 | 135 | 4.8 | 16.1 | 0.00 | 0.00 | 0.00 | 77 | 1017.5 |
| 20260906165055 | 28 | 159 | 4.8 | 16.1 | 0.00 | 0.00 | 0.00 | 77 | 1017.5 |
| 20260906164605 | 28 | 0 | 4.8 | 16.1 | 0.00 | 0.00 | 0.00 | 78 | 1017.6 |
| 20260906164055 | 28 | 156 | 6.4 | 16.1 | 0.00 | 0.00 | 0.00 | 78 | 1017.5 |
| 20260906163556 | 28 | 174 | 6.4 | 16.1 | 0.00 | 0.00 | 0.00 | 78 | 1017.5 |
| 20260906163105 | 28 | 145 | 4.8 | 22.5 | 0.00 | 0.00 | 0.00 | 79 | 1017.5 |
| 20260906162557 | 27 | 147 | 4.8 | 22.5 | 0.00 | 0.00 | 0.00 | 80 | 1017.4 |
| 20260906162055 | 27 | 123 | 3.2 | 16.1 | 0.00 | 0.00 | 0.00 | 80 | 1017.5 |
| 20260906161606 | 27 | 123 | 6.4 | 19.3 | 0.00 | 0.00 | 0.00 | 80 | 1017.2 |
| 20260906161059 | 27 | 161 | 6.4 | 19.3 | 0.00 | 0.00 | 0.00 | 79 | 1017.1 |
| 20260906160556 | 27 | 151 | 8.0 | 19.3 | 0.00 | 0.00 | 0.00 | 79 | 1017.1 |
| 20260906155555 | 26 | 153 | 6.4 | 17.7 | 0.00 | 0.00 | 0.00 | 82 | 1017.2 |
| 20260906155057 | 26 | 167 | 4.8 | 17.7 | 0.00 | 0.00 | 0.00 | 83 | 1017.3 |
| 20260906154607 | 26 | 114 | 6.4 | 14.5 | 0.00 | 0.00 | 0.00 | 82 | 1017.4 |
| 20260906154056 | 26 | 113 | 8.0 | 14.5 | 0.00 | 0.00 | 0.00 | 83 | 1017.4 |
| 20260906153559 | 26 | 169 | 4.8 | 17.7 | 0.00 | 0.00 | 0.00 | 84 | 1017.7 |
| 20260906153102 | 26 | 159 | 6.4 | 17.7 | 0.00 | 0.00 | 0.00 | 84 | 1017.8 |
| 20260906152559 | 25 | 116 | 4.8 | 16.1 | 0.00 | 0.00 | 0.00 | 85 | 1017.8 |
| 20260906152055 | 25 | 178 | 8.0 | 16.1 | 0.00 | 0.00 | 0.00 | 85 | 1017.8 |
| 20260906151601 | 25 | 165 | 4.8 | 16.1 | 0.00 | 0.00 | 0.00 | 86 | 1017.5 |
| 20260906151055 | 25 | 171 | 8.0 | 16.1 | 0.00 | 0.00 | 0.00 | 87 | 1017.5 |
| 20260906150555 | 24 | 150 | 6.4 | 19.3 | 0.00 | 0.00 | 0.00 | 88 | 1017.4 |
| 20260906150113 | 24 | 138 | 4.8 | 19.3 | 0.00 | 0.00 | 0.00 | 88 | 1017.4 |
| 20260906145555 | 23 | 139 | 6.4 | 16.1 | 0.00 | 0.00 | 0.00 | 89 | 1017.6 |
| 20260906145056 | 23 | 155 | 4.8 | 17.7 | 0.00 | 0.00 | 0.00 | 89 | 1017.5 |
| 20260906144622 | 23 | 167 | 8.0 | 17.7 | 0.00 | 0.00 | 0.00 | 89 | 1017.5 |
| 20260906144056 | 23 | 144 | 6.4 | 16.1 | 0.00 | 0.00 | 0.00 | 89 | 1017.5 |
| 20260906143556 | 23 | 125 | 4.8 | 16.1 | 0.00 | 0.00 | 0.00 | 90 | 1017.5 |
| 20260906143103 | 23 | 155 | 4.8 | 16.1 | 0.00 | 0.00 | 0.00 | 90 | 1017.6 |
| 20260906142555 | 23 | 165 | 6.4 | 12.9 | 0.00 | 0.00 | 0.00 | 90 | 1017.7 |
| 20260906142058 | 23 | 170 | 4.8 | 11.3 | 0.00 | 0.00 | 0.00 | 90 | 1017.8 |
| 20260906141624 | 23 | 159 | 4.8 | 11.3 | 0.00 | 0.00 | 0.00 | 90 | 1017.8 |
| 20260906141057 | 23 | 162 | 4.8 | 16.1 | 0.00 | 0.00 | 0.00 | 91 | 1017.6 |
| 20260906140559 | 23 | 157 | 8.0 | 16.1 | 0.00 | 0.00 | 0.00 | 91 | 1017.6 |
| 20260906140110 | 23 | 172 | 6.4 | 12.9 | 0.00 | 0.00 | 0.00 | 90 | 1017.7 |
| 20260906135558 | 23 | 165 | 3.2 | 12.9 | 0.00 | 0.00 | 0.00 | 91 | 1017.6 |
| 20260906135056 | 23 | 139 | 3.2 | 12.9 | 0.00 | 0.00 | 0.00 | 91 | 1017.7 |
| 20260906134607 | 22 | 147 | 3.2 | 9.7 | 0.00 | 0.00 | 0.00 | 91 | 1017.7 |
| 20260906134056 | 22 | 160 | 3.2 | 11.3 | 0.00 | 0.00 | 0.00 | 91 | 1017.8 |
| 20260906133556 | 22 | 167 | 3.2 | 11.3 | 0.00 | 0.00 | 0.00 | 91 | 1017.9 |
| 20260906133101 | 22 | 173 | 4.8 | 11.3 | 0.00 | 0.00 | 0.00 | 91 | 1017.8 |
| 20260906132557 | 22 | 168 | 4.8 | 11.3 | 0.00 | 0.00 | 0.00 | 91 | 1017.6 |
| 20260906132055 | 22 | 138 | 3.2 | 11.3 | 0.00 | 0.00 | 0.00 | 91 | 1017.6 |
| 20260906131607 | 22 | 167 | 3.2 | 9.7 | 0.00 | 0.00 | 0.00 | 91 | 1017.5 |
| 20260906131056 | 22 | 138 | 3.2 | 9.7 | 0.00 | 0.00 | 0.00 | 92 | 1017.4 |
| 20260906130559 | 22 | 136 | 1.6 | 9.7 | 0.00 | 0.00 | 0.00 | 92 | 1017.5 |
| 20260906125556 | 22 | 130 | 1.6 | 11.3 | 0.00 | 0.00 | 0.00 | 92 | 1017.2 |
| 20260906125056 | 22 | 141 | 3.2 | 11.3 | 0.00 | 0.00 | 0.00 | 92 | 1017.3 |
| 20260906124607 | 22 | 124 | 1.6 | 9.7 | 0.00 | 0.00 | 0.00 | 92 | 1017.3 |
| 20260906124059 | 22 | 0 | 1.6 | 9.7 | 0.00 | 0.00 | 0.00 | 92 | 1017.4 |
| 20260906123556 | 22 | 0 | 1.6 | 8.0 | 0.00 | 0.00 | 0.00 | 92 | 1017.3 |
| 20260906123106 | 22 | 130 | 0.0 | 8.0 | 0.00 | 0.00 | 0.00 | 92 | 1017.4 |
| 20260906122555 | 22 | 130 | 1.6 | 8.0 | 0.00 | 0.00 | 0.00 | 92 | 1017.3 |
| 20260906122055 | 22 | 140 | 1.6 | 6.4 | 0.00 | 0.00 | 0.00 | 92 | 1017.1 |
| 20260906121604 | 22 | 146 | 1.6 | 8.0 | 0.00 | 0.00 | 0.00 | 92 | 1017.1 |
| 20260906121055 | 22 | 153 | 1.6 | 9.7 | 0.00 | 0.00 | 0.00 | 92 | 1016.9 |
| 20260906120555 | 22 | 0 | 1.6 | 11.3 | 0.00 | 0.00 | 0.00 | 92 | 1017.0 |
| 20260906120111 | 22 | 147 | 3.2 | 11.3 | 0.00 | 0.00 | 0.00 | 92 | 1016.8 |
| 20260906115555 | 22 | 142 | 0.0 | 11.3 | 0.00 | 0.00 | 0.00 | 92 | 1016.7 |
| 20260906115054 | 22 | 0 | 1.6 | 11.3 | 0.00 | 0.00 | 0.00 | 92 | 1016.7 |
| 20260906114605 | 22 | 0 | 3.2 | 9.7 | 0.00 | 0.00 | 0.00 | 91 | 1016.7 |
| 20260906114056 | 22 | 115 | 1.6 | 11.3 | 0.00 | 0.00 | 0.00 | 91 | 1016.7 |
| 20260906113555 | 22 | 119 | 1.6 | 11.3 | 0.00 | 0.00 | 0.00 | 91 | 1016.6 |
| 20260906113105 | 22 | 125 | 1.6 | 6.4 | 0.00 | 0.00 | 0.00 | 91 | 1016.5 |
| 20260906112556 | 22 | 123 | 0.0 | 4.8 | 0.00 | 0.00 | 0.00 | 91 | 1016.5 |
| 20260906112055 | 22 | 0 | 0.0 | 11.3 | 0.00 | 0.00 | 0.00 | 91 | 1016.5 |
| 20260906111605 | 22 | 123 | 3.2 | 11.3 | 0.00 | 0.00 | 0.00 | 91 | 1016.4 |
| 20260906111056 | 22 | 0 | 3.2 | 11.3 | 0.00 | 0.00 | 0.00 | 91 | 1016.3 |
| 20260906110555 | 22 | 127 | 3.2 | 14.5 | 0.00 | 0.00 | 0.00 | 91 | 1016.3 |
| 20260906110110 | 22 | 134 | 4.8 | 14.5 | 0.00 | 0.00 | 0.00 | 91 | 1016.3 |
| 20260906105558 | 22 | 113 | 6.4 | 14.5 | 0.00 | 0.00 | 0.00 | 91 | 1016.3 |
| 20260906105057 | 22 | 117 | 4.8 | 14.5 | 0.00 | 0.00 | 0.00 | 91 | 1016.3 |
| 20260906104621 | 22 | 95 | 4.8 | 14.5 | 0.00 | 0.00 | 0.00 | 91 | 1016.4 |
| 20260906104137 | 22 | 112 | 4.8 | 14.5 | 0.00 | 0.00 | 0.00 | 91 | 1016.4 |
| 20260906103555 | 22 | 103 | 4.8 | 14.5 | 0.00 | 0.00 | 0.00 | 91 | 1016.5 |
| 20260906103101 | 22 | 106 | 4.8 | 14.5 | 0.00 | 0.00 | 0.00 | 91 | 1016.5 |
| 20260906102555 | 22 | 106 | 4.8 | 11.3 | 0.00 | 0.00 | 0.00 | 91 | 1016.6 |
| 20260906102055 | 22 | 188 | 4.8 | 11.3 | 0.00 | 0.00 | 0.00 | 91 | 1016.7 |
| 20260906101600 | 22 | 0 | 3.2 | 14.5 | 0.00 | 0.00 | 0.00 | 91 | 1016.6 |
| 20260906101055 | 22 | 0 | 3.2 | 14.5 | 0.00 | 0.00 | 0.00 | 91 | 1016.5 |
| 20260906100556 | 22 | 116 | 1.6 | 9.7 | 0.00 | 0.00 | 0.00 | 91 | 1016.6 |
| 20260906100100 | 22 | 111 | 3.2 | 9.7 | 0.00 | 0.00 | 0.00 | 91 | 1016.7 |
| 20260906095555 | 22 | 128 | 1.6 | 11.3 | 0.00 | 0.00 | 0.00 | 91 | 1016.6 |
| 20260906095057 | 22 | 115 | 3.2 | 12.9 | 0.00 | 0.00 | 0.00 | 91 | 1016.4 |
| 20260906094643 | 22 | 119 | 3.2 | 12.9 | 0.00 | 0.00 | 0.00 | 91 | 1016.4 |
| 20260906094056 | 22 | 121 | 4.8 | 12.9 | 0.00 | 0.00 | 0.00 | 91 | 1016.2 |
| 20260906093556 | 22 | 117 | 3.2 | 11.3 | 0.00 | 0.00 | 0.00 | 91 | 1016.4 |
| 20260906093109 | 22 | 103 | 4.8 | 12.9 | 0.00 | 0.00 | 0.00 | 91 | 1016.3 |
| 20260906092558 | 22 | 129 | 4.8 | 14.5 | 0.00 | 0.00 | 0.00 | 91 | 1016.2 |
| 20260906092056 | 22 | 114 | 4.8 | 14.5 | 0.00 | 0.00 | 0.00 | 91 | 1016.1 |
| 20260906091611 | 22 | 101 | 4.8 | 16.1 | 0.00 | 0.00 | 0.00 | 91 | 1016.1 |
| 20260906091056 | 22 | 108 | 4.8 | 16.1 | 0.00 | 0.00 | 0.00 | 91 | 1016.1 |
| 20260906090555 | 22 | 117 | 4.8 | 16.1 | 0.00 | 0.00 | 0.00 | 91 | 1016.2 |
| 20260906085556 | 23 | 116 | 3.2 | 12.9 | 0.00 | 0.00 | 0.00 | 91 | 1016.1 |
| 20260906085055 | 23 | 122 | 1.6 | 14.5 | 0.00 | 0.00 | 0.00 | 91 | 1016.2 |
| 20260906084605 | 23 | 86 | 6.4 | 14.5 | 0.00 | 0.00 | 0.00 | 92 | 1016.1 |
| 20260906084058 | 23 | 152 | 4.8 | 17.7 | 0.00 | 0.00 | 0.00 | 92 | 1016.1 |
| 20260906083556 | 23 | 106 | 6.4 | 17.7 | 0.00 | 0.00 | 0.00 | 92 | 1016.0 |
| 20260906083103 | 23 | 122 | 4.8 | 14.5 | 0.00 | 0.00 | 0.00 | 92 | 1015.9 |
| 20260906082555 | 23 | 0 | 4.8 | 12.9 | 0.00 | 0.00 | 0.00 | 92 | 1015.9 |
| 20260906082056 | 23 | 115 | 4.8 | 12.9 | 0.00 | 0.00 | 0.00 | 92 | 1015.8 |
| 20260906081602 | 23 | 97 | 4.8 | 12.9 | 0.00 | 0.00 | 0.00 | 92 | 1015.8 |
| 20260906081055 | 23 | 122 | 4.8 | 14.5 | 0.00 | 0.00 | 0.00 | 92 | 1015.9 |
| 20260906080556 | 23 | 125 | 6.4 | 14.5 | 0.00 | 0.00 | 0.00 | 92 | 1016.0 |
| 20260906080104 | 23 | 103 | 4.8 | 12.9 | 0.00 | 0.00 | 0.00 | 92 | 1015.9 |
| 20260906075555 | 23 | 111 | 4.8 | 12.9 | 0.00 | 0.00 | 0.00 | 92 | 1016.0 |
| 20260906075057 | 23 | 103 | 3.2 | 12.9 | 0.00 | 0.00 | 0.00 | 93 | 1015.9 |
| 20260906074601 | 23 | 115 | 6.4 | 14.5 | 0.00 | 0.00 | 0.00 | 93 | 1015.9 |
| 20260906074055 | 23 | 138 | 6.4 | 14.5 | 0.00 | 0.00 | 0.00 | 93 | 1015.9 |
| 20260906073554 | 23 | 94 | 3.2 | 12.9 | 0.00 | 0.00 | 0.00 | 92 | 1015.8 |
| 20260906073105 | 23 | 116 | 4.8 | 16.1 | 0.00 | 0.00 | 0.00 | 93 | 1015.8 |
| 20260906072557 | 23 | 119 | 4.8 | 16.1 | 0.00 | 0.00 | 0.00 | 93 | 1015.9 |
| 20260906072056 | 23 | 106 | 3.2 | 12.9 | 0.00 | 0.00 | 0.00 | 93 | 1016.0 |
| 20260906071606 | 23 | 103 | 6.4 | 14.5 | 0.00 | 0.00 | 0.00 | 93 | 1015.9 |
| 20260906071059 | 23 | 113 | 4.8 | 14.5 | 0.00 | 0.00 | 0.00 | 93 | 1016.0 |
| 20260906070558 | 23 | 117 | 3.2 | 12.9 | 0.00 | 0.00 | 0.00 | 93 | 1016.1 |
| 20260906070059 | 23 | 124 | 3.2 | 12.9 | 0.00 | 0.00 | 0.00 | 93 | 1016.0 |
| 20260906065555 | 24 | 113 | 4.8 | 12.9 | 0.00 | 0.00 | 0.00 | 92 | 1016.2 |
| 20260906065056 | 24 | 109 | 4.8 | 14.5 | 0.00 | 0.00 | 0.00 | 92 | 1016.1 |
| 20260906064601 | 24 | 98 | 4.8 | 14.5 | 0.00 | 0.00 | 0.00 | 92 | 1016.1 |
| 20260906064058 | 24 | 0 | 6.4 | 14.5 | 0.00 | 0.00 | 0.00 | 92 | 1016.1 |
| 20260906063600 | 24 | 96 | 3.2 | 14.5 | 0.00 | 0.00 | 0.00 | 92 | 1016.1 |
| 20260906063103 | 24 | 112 | 3.2 | 14.5 | 0.00 | 0.00 | 0.00 | 92 | 1016.1 |
| 20260906062556 | 24 | 124 | 4.8 | 14.5 | 0.00 | 0.00 | 0.00 | 92 | 1016.0 |
| 20260906062102 | 24 | 124 | 6.4 | 14.5 | 0.00 | 0.00 | 0.00 | 92 | 1016.1 |
| 20260906061604 | 24 | 82 | 4.8 | 17.7 | 0.00 | 0.00 | 0.00 | 92 | 1016.2 |
| 20260906061056 | 24 | 105 | 6.4 | 17.7 | 0.00 | 0.00 | 0.00 | 92 | 1016.1 |
| 20260906060559 | 24 | 115 | 6.4 | 17.7 | 0.00 | 0.00 | 0.00 | 92 | 1016.1 |
| 20260906060100 | 24 | 126 | 6.4 | 17.7 | 0.00 | 0.00 | 0.00 | 91 | 1016.2 |
| 20260906055558 | 25 | 105 | 6.4 | 14.5 | 0.00 | 0.00 | 0.00 | 91 | 1016.1 |
| 20260906055055 | 25 | 96 | 4.8 | 14.5 | 0.00 | 0.00 | 0.00 | 91 | 1016.1 |
| 20260906054604 | 25 | 109 | 4.8 | 14.5 | 0.00 | 0.00 | 0.00 | 91 | 1016.0 |
| 20260906054058 | 25 | 109 | 3.2 | 17.7 | 0.00 | 0.00 | 0.00 | 91 | 1015.9 |
| 20260906053556 | 25 | 96 | 6.4 | 17.7 | 0.00 | 0.00 | 0.00 | 91 | 1016.0 |
| 20260906053104 | 25 | 103 | 6.4 | 17.7 | 0.00 | 0.00 | 0.00 | 91 | 1015.9 |
| 20260906052559 | 25 | 80 | 8.0 | 17.7 | 0.00 | 0.00 | 0.00 | 90 | 1015.9 |
| 20260906052056 | 25 | 140 | 6.4 | 16.1 | 0.00 | 0.00 | 0.00 | 90 | 1015.9 |
| 20260906051605 | 25 | 124 | 6.4 | 16.1 | 0.00 | 0.00 | 0.00 | 90 | 1015.9 |
| 20260906051100 | 25 | 99 | 6.4 | 16.1 | 0.00 | 0.00 | 0.00 | 89 | 1015.8 |
| 20260906050555 | 25 | 95 | 4.8 | 16.1 | 0.00 | 0.00 | 0.00 | 89 | 1015.9 |
| 20260906050135 | 25 | 82 | 4.8 | 17.7 | 0.00 | 0.00 | 0.00 | 89 | 1016.0 |
| 20260906045555 | 25 | 96 | 6.4 | 17.7 | 0.00 | 0.00 | 0.00 | 89 | 1016.1 |
| 20260906045056 | 25 | 137 | 4.8 | 14.5 | 0.00 | 0.00 | 0.00 | 89 | 1016.0 |
| 20260906044559 | 26 | 86 | 6.4 | 14.5 | 0.00 | 0.00 | 0.00 | 88 | 1016.0 |
| 20260906044058 | 26 | 88 | 4.8 | 12.9 | 0.00 | 0.00 | 0.00 | 88 | 1016.0 |
| 20260906043555 | 26 | 97 | 4.8 | 12.9 | 0.00 | 0.00 | 0.00 | 88 | 1015.9 |
| 20260906043106 | 26 | 107 | 4.8 | 12.9 | 0.00 | 0.00 | 0.00 | 88 | 1015.8 |
| 20260906042555 | 26 | 115 | 4.8 | 12.9 | 0.00 | 0.00 | 0.00 | 88 | 1015.9 |
| 20260906042057 | 26 | 117 | 4.8 | 14.5 | 0.00 | 0.00 | 0.00 | 88 | 1016.1 |
| 20260906041601 | 26 | 106 | 4.8 | 14.5 | 0.00 | 0.00 | 0.00 | 88 | 1016.0 |
| 20260906041056 | 26 | 109 | 6.4 | 14.5 | 0.00 | 0.00 | 0.00 | 88 | 1015.9 |
| 20260906040556 | 26 | 107 | 6.4 | 14.5 | 0.00 | 0.00 | 0.00 | 88 | 1015.9 |
| 20260906040138 | 26 | 106 | 3.2 | 14.5 | 0.00 | 0.00 | 0.00 | 88 | 1015.8 |
| 20260906035557 | 26 | 105 | 6.4 | 14.5 | 0.00 | 0.00 | 0.00 | 87 | 1015.7 |
| 20260906035059 | 26 | 104 | 3.2 | 12.9 | 0.00 | 0.00 | 0.00 | 87 | 1015.5 |
| 20260906034604 | 26 | 128 | 4.8 | 12.9 | 0.00 | 0.00 | 0.00 | 87 | 1015.5 |
| 20260906034056 | 26 | 107 | 1.6 | 9.7 | 0.00 | 0.00 | 0.00 | 86 | 1015.4 |
| 20260906033558 | 26 | 123 | 3.2 | 9.7 | 0.00 | 0.00 | 0.00 | 86 | 1015.4 |
| 20260906033109 | 26 | 123 | 1.6 | 9.7 | 0.00 | 0.00 | 0.00 | 85 | 1015.6 |
| 20260906032555 | 26 | 119 | 3.2 | 9.7 | 0.00 | 0.00 | 0.00 | 85 | 1015.7 |
| 20260906032056 | 26 | 111 | 3.2 | 9.7 | 0.00 | 0.00 | 0.00 | 85 | 1015.6 |
| 20260906031605 | 27 | 112 | 1.6 | 9.7 | 0.00 | 0.00 | 0.00 | 84 | 1015.7 |
| 20260906031057 | 27 | 109 | 1.6 | 11.3 | 0.00 | 0.00 | 0.00 | 84 | 1015.8 |
| 20260906030558 | 27 | 115 | 1.6 | 11.3 | 0.00 | 0.00 | 0.00 | 84 | 1015.6 |
| 20260906030104 | 27 | 108 | 3.2 | 11.3 | 0.00 | 0.00 | 0.00 | 84 | 1015.5 |
| 20260906025556 | 27 | 112 | 3.2 | 11.3 | 0.00 | 0.00 | 0.00 | 83 | 1015.6 |
| 20260906025056 | 27 | 105 | 4.8 | 12.9 | 0.00 | 0.00 | 0.00 | 83 | 1015.5 |
| 20260906024606 | 27 | 91 | 4.8 | 12.9 | 0.00 | 0.00 | 0.00 | 83 | 1015.5 |
| 20260906024057 | 27 | 84 | 3.2 | 11.3 | 0.00 | 0.00 | 0.00 | 83 | 1015.4 |
| 20260906023556 | 27 | 83 | 4.8 | 11.3 | 0.00 | 0.00 | 0.00 | 83 | 1015.3 |
| 20260906023103 | 27 | 94 | 4.8 | 11.3 | 0.00 | 0.00 | 0.00 | 83 | 1015.3 |
| 20260906022558 | 27 | 93 | 3.2 | 9.7 | 0.00 | 0.00 | 0.00 | 83 | 1015.2 |
| 20260906022058 | 27 | 94 | 3.2 | 8.0 | 0.00 | 0.00 | 0.00 | 83 | 1015.3 |
| 20260906021607 | 27 | 96 | 3.2 | 8.0 | 0.00 | 0.00 | 0.00 | 82 | 1015.2 |
| 20260906021058 | 27 | 127 | 1.6 | 11.3 | 0.00 | 0.00 | 0.00 | 82 | 1015.1 |
| 20260906020557 | 27 | 103 | 3.2 | 11.3 | 0.00 | 0.00 | 0.00 | 82 | 1015.1 |
| 20260906020106 | 27 | 94 | 3.2 | 11.3 | 0.00 | 0.00 | 0.00 | 82 | 1014.9 |
| 20260906015556 | 27 | 94 | 1.6 | 9.7 | 0.00 | 0.00 | 0.00 | 82 | 1014.7 |
| 20260906015056 | 27 | 106 | 3.2 | 11.3 | 0.00 | 0.00 | 0.00 | 82 | 1014.7 |
| 20260906014606 | 27 | 100 | 3.2 | 11.3 | 0.00 | 0.00 | 0.00 | 81 | 1014.5 |
| 20260906014055 | 27 | 125 | 3.2 | 11.3 | 0.00 | 0.00 | 0.00 | 81 | 1014.4 |
| 20260906013555 | 28 | 106 | 3.2 | 11.3 | 0.00 | 0.00 | 0.00 | 81 | 1014.4 |
| 20260906013101 | 28 | 107 | 1.6 | 11.3 | 0.00 | 0.00 | 0.00 | 81 | 1014.5 |
| 20260906012600 | 28 | 109 | 1.6 | 9.7 | 0.00 | 0.00 | 0.00 | 81 | 1014.2 |
| 20260906012055 | 28 | 107 | 3.2 | 9.7 | 0.00 | 0.00 | 0.00 | 80 | 1014.2 |
| 20260906011603 | 28 | 0 | 3.2 | 9.7 | 0.00 | 0.00 | 0.00 | 80 | 1014.3 |
| 20260906011101 | 28 | 107 | 3.2 | 9.7 | 0.00 | 0.00 | 0.00 | 79 | 1014.4 |
| 20260906010557 | 28 | 100 | 1.6 | 12.9 | 0.00 | 0.00 | 0.00 | 79 | 1014.5 |
| 20260906010106 | 28 | 102 | 4.8 | 17.7 | 0.00 | 0.00 | 0.00 | 79 | 1014.5 |
| 20260906005555 | 28 | 132 | 4.8 | 17.7 | 0.00 | 0.00 | 0.00 | 79 | 1014.5 |
| 20260906005056 | 28 | 92 | 4.8 | 11.3 | 0.00 | 0.00 | 0.00 | 79 | 1014.3 |
| 20260906004622 | 29 | 84 | 4.8 | 11.3 | 0.00 | 0.00 | 0.00 | 79 | 1014.5 |
| 20260906004057 | 29 | 107 | 4.8 | 14.5 | 0.00 | 0.00 | 0.00 | 78 | 1014.6 |
| 20260906003602 | 29 | 82 | 3.2 | 14.5 | 0.00 | 0.00 | 0.00 | 78 | 1014.6 |
| 20260906003117 | 29 | 99 | 4.8 | 14.5 | 0.00 | 0.00 | 0.00 | 78 | 1014.6 |
| 20260906002558 | 29 | 94 | 4.8 | 12.9 | 0.00 | 0.00 | 0.00 | 78 | 1014.6 |
| 20260906002057 | 30 | 71 | 4.8 | 14.5 | 0.00 | 0.00 | 0.00 | 77 | 1014.6 |
| 20260906001621 | 30 | 98 | 4.8 | 14.5 | 0.00 | 0.00 | 0.00 | 77 | 1014.6 |
| 20260906001057 | 30 | 130 | 4.8 | 14.5 | 0.00 | 0.00 | 0.00 | 76 | 1014.6 |
| 20260906000556 | 30 | 97 | 4.8 | 12.9 | 0.00 | 0.00 | 0.00 | 76 | 1014.6 |
| 20260906000107 | 30 | 92 | 4.8 | 17.7 | 0.00 | 0.00 | 0.00 | 76 | 1014.6 |
| 20260905235555 | 30 | 71 | 4.8 | 19.3 | 0.00 | 0.00 | 0.00 | 75 | 1014.5 |
| 20260905235059 | 30 | 96 | 8.0 | 19.3 | 0.00 | 0.00 | 0.00 | 75 | 1014.6 |
| 20260905234606 | 30 | 122 | 8.0 | 19.3 | 0.00 | 0.00 | 0.00 | 74 | 1014.7 |
| 20260905234056 | 30 | 84 | 6.4 | 19.3 | 0.00 | 0.00 | 0.00 | 74 | 1014.7 |
| 20260905233559 | 31 | 98 | 4.8 | 19.3 | 0.00 | 0.00 | 0.00 | 74 | 1014.6 |
| 20260905233113 | 31 | 92 | 6.4 | 19.3 | 0.00 | 0.00 | 0.00 | 73 | 1014.6 |
| 20260905232555 | 31 | 76 | 8.0 | 17.7 | 0.00 | 0.00 | 0.00 | 73 | 1014.6 |
| 20260905232057 | 31 | 124 | 8.0 | 17.7 | 0.00 | 0.00 | 0.00 | 73 | 1014.6 |
| 20260905231602 | 31 | 92 | 8.0 | 17.7 | 0.00 | 0.00 | 0.00 | 73 | 1014.7 |
| 20260905231059 | 31 | 106 | 8.0 | 19.3 | 0.00 | 0.00 | 0.00 | 73 | 1014.7 |
| 20260905230555 | 31 | 130 | 8.0 | 19.3 | 0.00 | 0.00 | 0.00 | 73 | 1014.6 |
| 20260905230100 | 31 | 117 | 11.3 | 19.3 | 0.00 | 0.00 | 0.00 | 72 | 1014.5 |
| 20260905225554 | 31 | 71 | 9.7 | 17.7 | 0.00 | 0.00 | 0.00 | 72 | 1014.4 |
| 20260905225057 | 31 | 114 | 8.0 | 20.9 | 0.00 | 0.00 | 0.00 | 72 | 1014.3 |
| 20260905224610 | 31 | 82 | 8.0 | 20.9 | 0.00 | 0.00 | 0.00 | 73 | 1014.4 |
| 20260905224055 | 31 | 89 | 8.0 | 20.9 | 0.00 | 0.00 | 0.00 | 72 | 1014.4 |
| 20260905223555 | 31 | 135 | 11.3 | 22.5 | 0.00 | 0.00 | 0.00 | 71 | 1014.4 |
| 20260905223102 | 31 | 115 | 12.9 | 22.5 | 0.00 | 0.00 | 0.00 | 70 | 1014.5 |
| 20260905222556 | 31 | 109 | 6.4 | 19.3 | 0.00 | 0.00 | 0.00 | 71 | 1014.6 |
| 20260905222058 | 31 | 74 | 8.0 | 20.9 | 0.00 | 0.00 | 0.00 | 71 | 1014.6 |
| 20260905221603 | 31 | 92 | 9.7 | 20.9 | 0.00 | 0.00 | 0.00 | 71 | 1014.5 |
| 20260905221056 | 31 | 116 | 11.3 | 20.9 | 0.00 | 0.00 | 0.00 | 71 | 1014.6 |
| 20260905220556 | 31 | 99 | 8.0 | 20.9 | 0.00 | 0.00 | 0.00 | 71 | 1014.5 |
| 20260905220106 | 31 | 110 | 9.7 | 22.5 | 0.00 | 0.00 | 0.00 | 72 | 1014.5 |
| 20260905215600 | 31 | 83 | 11.3 | 22.5 | 0.00 | 0.00 | 0.00 | 71 | 1014.5 |
| 20260905215055 | 31 | 97 | 9.7 | 20.9 | 0.00 | 0.00 | 0.00 | 72 | 1014.5 |
| 20260905214603 | 31 | 111 | 11.3 | 20.9 | 0.00 | 0.00 | 0.00 | 71 | 1014.5 |
| 20260905214056 | 32 | 100 | 8.0 | 19.3 | 0.00 | 0.00 | 0.00 | 71 | 1014.5 |
| 20260905213556 | 31 | 108 | 6.4 | 19.3 | 0.00 | 0.00 | 0.00 | 72 | 1014.7 |
| 20260905213108 | 31 | 112 | 8.0 | 20.9 | 0.00 | 0.00 | 0.00 | 71 | 1014.7 |
| 20260905212556 | 31 | 111 | 9.7 | 20.9 | 0.00 | 0.00 | 0.00 | 71 | 1014.5 |
| 20260905212056 | 31 | 80 | 9.7 | 20.9 | 0.00 | 0.00 | 0.00 | 71 | 1014.5 |
| 20260905211604 | 31 | 84 | 6.4 | 29.0 | 0.00 | 0.00 | 0.00 | 72 | 1014.6 |
| 20260905211058 | 31 | 74 | 11.3 | 29.0 | 0.00 | 0.00 | 0.00 | 72 | 1014.8 |
| 20260905210558 | 31 | 98 | 6.4 | 17.7 | 0.00 | 0.00 | 0.00 | 73 | 1014.8 |
| 20260905210110 | 31 | 99 | 9.7 | 17.7 | 0.00 | 0.00 | 0.00 | 72 | 1014.8 |
| 20260905205555 | 31 | 116 | 6.4 | 17.7 | 0.00 | 0.00 | 0.00 | 73 | 1014.9 |
| 20260905205055 | 31 | 59 | 8.0 | 19.3 | 0.00 | 0.00 | 0.00 | 72 | 1014.9 |
| 20260905204605 | 31 | 134 | 8.0 | 19.3 | 0.00 | 0.00 | 0.00 | 72 | 1015.0 |
| 20260905204056 | 31 | 79 | 6.4 | 16.1 | 0.00 | 0.00 | 0.00 | 71 | 1015.1 |
| 20260905203555 | 31 | 134 | 4.8 | 16.1 | 0.00 | 0.00 | 0.00 | 73 | 1015.1 |
| 20260905203103 | 31 | 117 | 3.2 | 17.7 | 0.00 | 0.00 | 0.00 | 74 | 1015.1 |
| 20260905202557 | 31 | 91 | 6.4 | 17.7 | 0.00 | 0.00 | 0.00 | 73 | 1015.1 |
| 20260905202056 | 31 | 113 | 6.4 | 17.7 | 0.00 | 0.00 | 0.00 | 72 | 1015.0 |
| 20260905201610 | 31 | 146 | 4.8 | 16.1 | 0.00 | 0.00 | 0.00 | 74 | 1015.0 |
| 20260905201054 | 31 | 130 | 6.4 | 16.1 | 0.00 | 0.00 | 0.00 | 74 | 1014.9 |
| 20260905200557 | 31 | 111 | 3.2 | 12.9 | 0.00 | 0.00 | 0.00 | 75 | 1015.0 |
| 20260905200140 | 31 | 119 | 6.4 | 17.7 | 0.00 | 0.00 | 0.00 | 75 | 1015.0 |
| 20260905195558 | 31 | 132 | 6.4 | 19.3 | 0.00 | 0.00 | 0.00 | 74 | 1014.8 |
| 20260905195055 | 30 | 96 | 4.8 | 19.3 | 0.00 | 0.00 | 0.00 | 74 | 1014.9 |
| 20260905194614 | 30 | 85 | 9.7 | 17.7 | 0.00 | 0.00 | 0.00 | 74 | 1014.9 |
| 20260905194055 | 30 | 119 | 6.4 | 16.1 | 0.00 | 0.00 | 0.00 | 75 | 1015.0 |
| 20260905193556 | 30 | 125 | 6.4 | 14.5 | 0.00 | 0.00 | 0.00 | 75 | 1015.1 |
| 20260905193101 | 30 | 117 | 4.8 | 17.7 | 0.00 | 0.00 | 0.00 | 77 | 1015.2 |
| 20260905192556 | 30 | 113 | 8.0 | 19.3 | 0.00 | 0.00 | 0.00 | 76 | 1015.3 |
| 20260905192056 | 30 | 105 | 9.7 | 22.5 | 0.00 | 0.00 | 0.00 | 76 | 1015.5 |
| 20260905191606 | 30 | 57 | 9.7 | 22.5 | 0.00 | 0.00 | 0.00 | 76 | 1015.5 |
| 20260905191057 | 30 | 51 | 9.7 | 22.5 | 0.00 | 0.00 | 0.00 | 75 | 1015.4 |
| 20260905190557 | 30 | 96 | 11.3 | 22.5 | 0.00 | 0.00 | 0.00 | 77 | 1015.6 |
| 20260905190104 | 30 | 112 | 8.0 | 20.9 | 0.00 | 0.00 | 0.00 | 76 | 1015.6 |
| 20260905185556 | 29 | 66 | 4.8 | 20.9 | 0.00 | 0.00 | 0.00 | 77 | 1015.8 |
| 20260905185100 | 29 | 76 | 12.9 | 24.1 | 0.00 | 0.00 | 0.00 | 76 | 1016.0 |
| 20260905184611 | 29 | 78 | 8.0 | 24.1 | 0.00 | 0.00 | 0.00 | 76 | 1016.1 |
| 20260905184059 | 29 | 59 | 12.9 | 24.1 | 0.00 | 0.00 | 0.00 | 77 | 1016.3 |
| 20260905183555 | 29 | 48 | 9.7 | 22.5 | 0.00 | 0.00 | 0.00 | 76 | 1016.4 |
| 20260905183107 | 29 | 75 | 12.9 | 22.5 | 0.00 | 0.00 | 0.00 | 77 | 1016.3 |
| 20260905182556 | 29 | 85 | 9.7 | 20.9 | 0.00 | 0.00 | 0.00 | 77 | 1016.3 |
| 20260905182058 | 29 | 41 | 9.7 | 20.9 | 0.00 | 0.00 | 0.00 | 77 | 1016.1 |
| 20260905181607 | 28 | 24 | 9.7 | 24.1 | 0.00 | 0.00 | 0.00 | 77 | 1016.3 |
| 20260905181056 | 28 | 39 | 9.7 | 24.1 | 0.00 | 0.00 | 0.00 | 76 | 1016.4 |
| 20260905180555 | 28 | 21 | 6.4 | 17.7 | 0.00 | 0.00 | 0.00 | 76 | 1016.5 |
| 20260905175555 | 29 | 25 | 4.8 | 16.1 | 0.00 | 0.00 | 0.00 | 75 | 1016.5 |